Waarnemingen

Advertentie
Mijn weer
Vlissingen, Nederland (6310): temperatuur & dauwpunt: 15.01.2017 18:00:00 - 21.01.2017 18:00:00 (CET)Vlissingen, Nederland (6310): temperatuur 5cm: 15.01.2017 18:00:00 - 21.01.2017 18:00:00 (CET)Vlissingen, Nederland (6310): windsnelheid & windstoten: 15.01.2017 18:00:00 - 21.01.2017 18:00:00 (CET)Vlissingen, Nederland (6310): windrichting: 15.01.2017 18:00:00 - 21.01.2017 18:00:00 (CET)Vlissingen, Nederland (6310): luchtdruk: 15.01.2017 18:00:00 - 21.01.2017 18:00:00 (CET)Vlissingen, Nederland (6310): zicht: 15.01.2017 18:00:00 - 21.01.2017 18:00:00 (CET)Vlissingen, Nederland (6310): neerslag: 15.01.2017 18:00:00 - 21.01.2017 18:00:00 (CET)
Datum & Tijd tt [°C] td [°C] tt 5cm [°C] ff [km/u] ff [kn] fx [km/u] fx [kn] dd ppp [hPa] vv [km] rr [mm]
21.01.2017 18:00:00 3,0 -3,0 0,9 9 5 - - ZO 1027,5 10 -
21.01.2017 17:00:00 3,0 -2,3 1,7 9 5 14 8 OZO 1027,4 10 0,0
21.01.2017 16:00:00 3,2 -2,5 2,8 11 6 14 8 OZO 1027,5 10 0,0
21.01.2017 15:00:00 3,4 -2,4 4,0 13 7 18 10 OZO 1027,6 10 0,0
21.01.2017 14:00:00 3,0 -2,8 3,7 13 7 18 10 OZO 1028,3 10 0,0
21.01.2017 13:00:00 1,9 -3,0 2,8 16 9 22 12 OZO 1028,9 10 0,0
21.01.2017 12:00:00 1,9 -2,4 2,5 16 9 22 12 O 1029,7 10 0,0
21.01.2017 11:00:00 1,2 -2,3 1,2 21 11 25 14 O 1030,0 10 0,0
21.01.2017 10:00:00 0,5 -2,2 0,2 15 8 22 12 O 1030,0 9 0,0
21.01.2017 09:00:00 0,2 -2,3 -0,8 18 10 25 14 ONO 1029,9 10 0,0
21.01.2017 08:00:00 0,1 -2,9 -1,1 16 9 22 12 ONO 1029,9 10 0,0
21.01.2017 07:00:00 0,3 -3,2 -1,0 15 8 18 10 ONO 1030,3 10 0,0
21.01.2017 06:00:00 0,1 -3,7 -1,2 14 8 22 12 ONO 1030,6 18 0,0
21.01.2017 05:00:00 0,3 -4,7 -0,9 15 8 25 14 ONO 1030,7 10 0,0
21.01.2017 04:00:00 0,6 -5,1 -0,7 18 10 25 14 ONO 1031,1 10 0,0
21.01.2017 03:00:00 0,9 -5,0 -0,5 18 10 29 16 ONO 1031,4 10 0,0
21.01.2017 02:00:00 0,7 -5,0 -0,4 18 10 29 16 ONO 1031,4 10 0,0
21.01.2017 01:00:00 1,0 -4,7 -0,1 21 11 32 18 ONO 1031,9 10 0,0
21.01.2017 00:00:00 1,4 -4,4 0,1 18 10 29 16 ONO 1032,1 10 0,0
20.01.2017 23:00:00 1,6 -3,9 0,5 24 13 32 18 ONO 1032,5 10 0,0
20.01.2017 22:00:00 2,1 -4,2 0,5 16 9 29 16 ONO 1032,8 10 0,0
20.01.2017 21:00:00 2,0 -4,3 0,7 18 10 29 16 ONO 1032,7 10 0,0
20.01.2017 20:00:00 2,6 -5,0 0,9 21 11 29 16 ONO 1032,8 10 0,0
20.01.2017 19:00:00 2,0 -4,0 0,7 21 11 29 16 NO 1032,7 10 0,0
20.01.2017 18:00:00 2,4 -3,2 1,1 16 9 22 12 ONO 1032,8 10 0,0
20.01.2017 17:00:00 2,9 -2,3 2,1 18 10 25 14 NO 1032,7 10 0,0
20.01.2017 16:00:00 3,5 -2,4 3,3 21 11 25 14 NO 1032,9 10 0,0
20.01.2017 15:00:00 3,3 -4,0 3,5 18 10 25 14 NO 1033,0 10 0,0
20.01.2017 14:00:00 2,9 -3,7 3,3 21 11 25 14 NO 1033,5 10 0,0
20.01.2017 13:00:00 2,5 -4,0 3,2 15 8 22 12 NO 1034,1 10 0,0
20.01.2017 12:00:00 1,7 -4,2 2,1 15 8 18 10 NO 1034,7 10 0,0
20.01.2017 11:00:00 1,1 -4,1 1,1 13 7 18 10 ONO 1035,1 10 0,0
20.01.2017 10:00:00 -0,8 -5,1 -1,3 16 9 22 12 NO 1035,0 10 0,0
20.01.2017 09:00:00 -1,5 -5,0 -2,6 11 6 14 8 NO 1035,0 10 0,0
20.01.2017 08:00:00 -1,4 -5,0 -2,7 9 5 14 8 ONO 1035,1 10 0,0
20.01.2017 07:00:00 -1,5 -4,5 -2,5 13 7 18 10 NO 1035,1 10 0,0
20.01.2017 06:00:00 -1,4 -4,4 -2,3 16 9 18 10 NO 1035,3 10 0,0
20.01.2017 05:00:00 -1,2 -4,5 -2,3 15 8 18 10 NO 1035,5 10 0,0
20.01.2017 04:00:00 -0,8 -4,1 -2,2 11 6 18 10 ONO 1035,4 10 0,0
20.01.2017 03:00:00 -0,9 -4,3 -2,0 15 8 18 10 NO 1035,5 10 0,0
20.01.2017 02:00:00 -0,8 -4,1 -1,8 15 8 18 10 NO 1035,5 10 0,0
20.01.2017 01:00:00 -0,2 -3,8 -1,4 15 8 18 10 ONO 1036,0 10 0,0
20.01.2017 00:00:00 -0,2 -3,2 -1,4 13 7 18 10 NO 1036,4 10 0,0
19.01.2017 23:00:00 0,0 -3,4 -1,2 13 7 18 10 NO 1036,6 10 0,0
19.01.2017 22:00:00 0,4 -4,0 -0,9 16 9 22 12 NO 1036,8 10 0,0
19.01.2017 21:00:00 0,5 -3,3 -1,0 15 8 22 12 NO 1036,9 10 0,0
19.01.2017 20:00:00 0,5 -3,1 -0,7 15 8 18 10 ONO 1036,9 10 0,0
19.01.2017 19:00:00 0,6 -2,8 -0,6 15 8 22 12 NO 1036,7 10 0,0
19.01.2017 18:00:00 0,9 -3,0 -0,3 15 8 22 12 NO 1036,7 10 0,0
19.01.2017 17:00:00 1,5 -2,8 0,7 15 8 22 12 NO 1036,6 10 0,0
19.01.2017 16:00:00 2,1 -2,5 1,8 15 8 22 12 NO 1036,7 10 0,0
19.01.2017 15:00:00 2,2 -3,4 2,4 16 9 22 12 NO 1036,7 10 0,0
19.01.2017 14:00:00 2,6 -3,8 3,2 15 8 22 12 ONO 1036,8 10 0,0
19.01.2017 13:00:00 1,7 -4,3 2,4 13 7 22 12 ONO 1037,4 10 0,0
19.01.2017 12:00:00 0,8 -3,7 1,4 11 6 18 10 ONO 1037,8 10 0,0
19.01.2017 11:00:00 -0,6 -3,8 -0,5 11 6 18 10 NO 1038,3 9 0,0
19.01.2017 10:00:00 -1,8 -4,2 -2,1 13 7 18 10 NO 1038,2 6 0,0
19.01.2017 09:00:00 -2,3 -4,0 -3,2 14 8 18 10 NO 1037,9 5 0,0
19.01.2017 08:00:00 -2,4 -3,7 -3,2 14 8 18 10 NNO 1037,6 3,5 0,0
19.01.2017 07:00:00 -2,3 -3,6 -3,1 14 8 18 10 NNO 1037,5 3,3 0,0
19.01.2017 06:00:00 -2,2 -3,4 -3,3 11 6 14 8 NO 1037,5 2,9 0,0
19.01.2017 05:00:00 -2,1 -3,1 -3,0 13 7 18 10 NO 1037,9 2,5 0,0
19.01.2017 04:00:00 -1,9 -3,2 -2,6 14 8 18 10 NO 1037,9 2,8 0,0
19.01.2017 03:00:00 -1,0 -2,9 -1,8 14 8 18 10 ONO 1038,0 3,9 0,0
19.01.2017 02:00:00 -1,3 -2,7 -2,7 18 10 18 10 ONO 1038,0 2,9 0,0
19.01.2017 01:00:00 -2,0 -3,6 -2,8 13 7 18 10 NO 1038,2 3,1 0,0
19.01.2017 00:00:00 -1,4 -3,4 -2,5 11 6 14 8 ONO 1038,7 3,6 0,0
18.01.2017 23:00:00 -1,1 -3,0 -1,6 13 7 18 10 ONO 1038,5 3,5 0,0
18.01.2017 22:00:00 -1,4 -3,3 -2,0 13 7 18 10 ONO 1038,5 3,5 0,0
18.01.2017 21:00:00 -1,9 -3,3 -2,6 11 6 18 10 NO 1038,6 3,1 0,0
18.01.2017 20:00:00 -1,7 -3,3 -2,5 11 6 14 8 NO 1038,8 3,5 0,0
18.01.2017 19:00:00 -1,2 -2,9 -1,9 15 8 22 12 NO 1038,6 3,2 0,0
18.01.2017 18:00:00 -1,6 -2,9 -2,2 15 8 22 12 NO 1038,8 2,6 0,0
18.01.2017 17:00:00 -1,4 -2,8 -1,9 15 8 22 12 NO 1039,2 2,3 0,0
18.01.2017 16:00:00 -1,3 -3,1 -1,5 9 5 14 8 ONO 1039,2 2,8 0,0
18.01.2017 15:00:00 -1,7 -3,1 -1,6 9 5 14 8 NO 1039,0 2,7 0,0
18.01.2017 14:00:00 -2,1 -3,4 -1,5 11 6 14 8 NO 1039,5 2,3 0,0
18.01.2017 13:00:00 -2,4 -3,4 -1,9 13 7 18 10 O 1039,8 1,9 0,0
18.01.2017 12:00:00 -2,7 -3,4 -2,0 13 7 22 12 O 1039,9 1,7 0,0
18.01.2017 11:00:00 -2,8 -3,5 -2,5 11 6 18 10 ONO 1040,3 1,8 0,0
18.01.2017 10:00:00 -3,3 -4,0 -3,2 11 6 14 8 O 1040,0 1,1 0,0
18.01.2017 09:00:00 -3,3 -3,8 -3,4 9 5 11 6 NO 1039,8 0,7 0,0
18.01.2017 08:00:00 -3,1 -3,6 -3,3 8 4 14 8 NO 1039,5 1,7 0,0
18.01.2017 07:00:00 -2,6 -2,8 -2,7 13 7 25 14 O 1039,1 0,3 0,0
18.01.2017 06:00:00 -3,1 -3,6 -3,2 11 6 14 8 ONO 1039,0 1,9 0,0
18.01.2017 05:00:00 -2,7 -3,6 -3,7 9 5 11 6 ONO 1039,2 2,3 0,0
18.01.2017 04:00:00 -2,2 -3,4 -3,5 9 5 18 10 ONO 1039,2 2,5 0,0
18.01.2017 03:00:00 -2,4 -3,5 -3,7 9 5 11 6 NO 1039,4 2,6 0,0
18.01.2017 02:00:00 -2,1 -3,5 -3,5 8 4 11 6 ONO 1039,3 2,8 0,0
18.01.2017 01:00:00 -2,1 -3,5 -3,5 8 4 11 6 NO 1039,5 3,0 0,0
18.01.2017 00:00:00 -1,4 -3,0 -3,1 8 4 11 6 ONO 1039,5 2,9 0,0
17.01.2017 23:00:00 -1,9 -3,4 -3,0 11 6 14 8 NO 1039,5 3,5 0,0
17.01.2017 22:00:00 -1,2 -3,1 -2,6 9 5 14 8 O 1039,4 3,5 0,0
17.01.2017 21:00:00 -1,5 -3,1 -2,9 9 5 11 6 ONO 1039,2 2,9 0,0
17.01.2017 20:00:00 -1,2 -3,4 -2,6 11 6 14 8 NO 1039,0 3,7 0,0
17.01.2017 19:00:00 -1,5 -3,5 -2,7 9 5 14 8 ONO 1038,6 3,4 0,0
17.01.2017 18:00:00 -1,3 -3,0 -2,4 9 5 11 6 NO 1038,5 3,7 0,0
17.01.2017 17:00:00 -0,9 -3,6 -1,7 8 4 11 6 NO 1038,3 4,6 0,0
17.01.2017 16:00:00 -0,6 -3,8 -0,6 8 4 14 8 O 1038,1 5 0,0
17.01.2017 15:00:00 -0,6 -3,7 0,3 9 5 14 8 OZO 1038,1 4,8 0,0
17.01.2017 14:00:00 -1,0 -3,7 0,2 11 6 18 10 O 1038,1 4,7 0,0
17.01.2017 13:00:00 -1,2 -3,4 -0,8 16 9 22 12 ZO 1038,4 3,5 0,0
17.01.2017 12:00:00 -1,7 -3,5 -1,4 15 8 22 12 OZO 1038,3 3,0 0,0
17.01.2017 11:00:00 -2,0 -3,8 -1,7 21 11 25 14 OZO 1038,2 3,0 0,0
17.01.2017 10:00:00 -2,0 -3,4 -2,2 18 10 25 14 O 1037,5 2,7 0,0
17.01.2017 09:00:00 -2,0 -3,6 -2,4 15 8 22 12 O 1037,1 2,9 0,0
17.01.2017 08:00:00 -1,7 -3,3 -2,3 13 7 18 10 O 1036,4 3,2 0,0
17.01.2017 07:00:00 -1,5 -3,5 -1,8 13 7 - - O 1035,9 3,0 0,0
17.01.2017 06:00:00 -1,6 -3,5 -2,2 15 8 22 12 OZO 1035,4 3,4 0,0
17.01.2017 05:00:00 -1,4 -3,6 -1,9 15 8 22 12 O 1034,9 5 0,0
17.01.2017 04:00:00 -1,4 -3,5 -1,9 15 8 - - O 1034,6 5 0,0
17.01.2017 03:00:00 -1,9 -3,6 -2,1 13 7 22 12 O 1034,5 3,3 0,0
17.01.2017 02:00:00 -1,8 -3,8 -2,3 18 10 29 16 OZO 1033,8 7 0,0
17.01.2017 01:00:00 -1,1 -3,4 -1,7 11 6 18 10 O 1033,8 7 0,0
17.01.2017 00:00:00 -1,1 -3,1 -2,1 13 7 18 10 ONO 1033,4 7 0,0
16.01.2017 23:00:00 -1,0 -3,2 -1,5 13 7 18 10 ONO 1033,0 6 0,0
16.01.2017 22:00:00 -0,5 -1,5 -0,7 15 8 22 12 ONO 1032,4 3,0 0,0
16.01.2017 21:00:00 -0,2 -1,4 -0,4 16 9 25 14 O 1031,9 5 0,0
16.01.2017 20:00:00 0,8 -1,1 0,2 13 7 25 14 O 1030,9 7 0,0
16.01.2017 19:00:00 0,6 -0,7 -0,4 9 5 14 8 NO 1030,2 6 0,0
16.01.2017 18:00:00 1,4 0,0 0,2 11 6 14 8 ONO 1029,6 7 0,0
16.01.2017 17:00:00 2,2 0,6 1,2 11 6 18 10 ONO 1029,0 10 0,0
16.01.2017 16:00:00 3,6 0,0 3,0 9 5 14 8 OZO 1028,4 10 0,0
16.01.2017 15:00:00 3,9 0,2 4,2 9 5 14 8 O 1028,0 10 0,0
16.01.2017 14:00:00 4,5 1,7 6,4 4 2 7 4 - 1027,8 10 0,0
16.01.2017 13:00:00 3,9 1,7 4,9 8 4 14 8 O 1027,8 10 0,0
16.01.2017 12:00:00 - - - 2 1 4 2 - 1027,7 10 0,0
16.01.2017 11:00:00 2,9 - 2,8 8 4 11 6 ONO 1027,4 10 0,0
16.01.2017 10:00:00 3,1 - 2,6 9 5 14 8 NO 1027,0 10 0,0
16.01.2017 09:00:00 2,8 - 2,0 8 4 11 6 NNW 1026,5 10 0,0
16.01.2017 08:00:00 2,6 - 1,7 5 3 7 4 NNW 1026,0 10 0,0
16.01.2017 07:00:00 2,6 - 1,8 9 5 22 12 NNW 1025,4 10 0,1
16.01.2017 06:00:00 3,1 - 2,0 9 5 14 8 WNW 1025,4 10 0,0
16.01.2017 05:00:00 2,2 - 1,3 9 5 14 8 NW 1025,0 10 0,0
16.01.2017 04:00:00 2,2 - 1,4 9 5 22 12 NW 1024,8 8 0,1
16.01.2017 03:00:00 2,0 - -1,1 8 4 11 6 WNW 1024,7 5 0,0
16.01.2017 02:00:00 1,0 - -1,3 5 3 7 4 WNW 1024,5 3,2 0,0
16.01.2017 01:00:00 1,2 - 0,0 5 3 7 4 NW 1024,5 2,4 0,0
16.01.2017 00:00:00 1,4 - 0,0 4 2 7 4 - 1024,2 2,7 0,0
15.01.2017 23:00:00 1,5 - -0,5 2 1 4 2 - 1024,0 3,3 0,0
15.01.2017 22:00:00 2,0 - 0,4 4 2 7 4 - 1023,5 5 0,0
15.01.2017 21:00:00 2,8 - 2,2 11 6 18 10 ZW 1022,8 8 0,0
15.01.2017 20:00:00 2,6 - 1,8 9 5 11 6 ZZW 1022,7 8 0,0
15.01.2017 19:00:00 3,3 - 2,9 8 4 11 6 Z 1022,3 10 0,0
15.01.2017 18:00:00 3,4 - 2,9 5 3 11 6 ZW 1022,1 10 0,0

tt = temperatuur
td = dauwpunt
tt 5cm = temperatuur 5cm
ff = windsnelheid
fx = windstoten
dd = windrichting
ppp = luchtdruk
vv = zicht
rr = neerslag

Weerstations in de omgeving